CAPE
0 0 0 0 0 0 0 0 0 0 0 0 0 0 0 0 0 0 0 399 822 864 398 73 15 19 14 710 1296 1532 1652 1596 1568 1588 1602 1469 1378 1289 1244 1142 984 938 816 590 552 937 890 818 803 606 515 514 383 321 484 1079 1090 1040 1132 1241 1652 1500 1155 1313 1399 1500 1552 1645 1531 1638 1498 1618 1813 2209 2308 2167 2115 1950 1906 2331 2277 2332 2138 2630 2751 3044
0 0 0 0 0 0 0 0 0 0 0 0 0 0 2 3 1 0 0 0 61 73 155 4 10 19 26 46 821 1156 1424 1484 1558 1588 1597 1547 1408 1285 1182 1220 1239 1114 935 915 1054 1218 1119 1060 882 644 554 482 416 590 732 1147 1101 1131 1098 1265 1672 1516 1565 1332 1417 1522 1562 1824 1662 1660 1707 1603 1724 2091 2184 2169 2119 1885 2083 2443 2426 2416 2176 2212 2399 2655
0 0 0 0 0 0 0 0 0 0 0 0 0 0 6 15 0 0 0 0 0 0 11 4 0 10 31 47 473 851 1111 1172 1227 1332 1520 1566 1464 1262 1063 1159 1234 1201 1124 1156 1266 1213 1236 1098 958 648 482 389 499 761 820 1104 986 1166 1041 1235 1708 1541 1680 1644 1320 1543 1688 1803 1746 1638 1688 1639 1566 1706 1673 1699 1828 1887 1984 2084 2367 2389 2749 2416 2370 2643
0 0 0 0 0 0 0 0 0 0 0 0 0 0 12 8 0 2 0 0 0 0 0 0 0 0 14 35 390 1048 967 1038 1120 1233 1259 1036 1431 1164 717 1185 1168 1132 1351 1311 1284 1237 1152 1234 1230 839 772 611 554 916 838 966 1014 1192 1199 1492 1678 1742 1800 1694 1649 1696 1580 1692 2094 2093 2104 2078 1768 1586 1536 1934 2292 2094 2136 2118 2253 2548 2929 2577 2520 2523
0 0 0 0 0 0 0 0 0 0 0 0 0 0 15 0 0 0 0 0 0 0 0 1 0 1 2 24 123 958 1020 936 1148 1181 1197 1110 924 865 1394 892 740 1166 1286 1330 1296 1181 1115 1221 1261 1075 1070 976 943 970 910 844 854 1030 1261 1776 2006 1924 1826 2062 2023 2026 1700 1876 2208 2046 2382 2260 2164 1948 1792 1722 1890 1906 1996 2115 2321 2609 2739 2757 2630 2650
0 0 0 0 0 0 0 0 0 0 0 0 0 0 2 0 0 0 0 0 0 0 0 0 0 0 71 7 32 738 1028 1113 1213 1279 884 1077 1302 1314 996 829 1018 1090 1131 1379 1323 1180 1036 1144 1271 1178 1239 1172 1126 1255 1078 833 810 1014 1317 1838 2218 2059 2059 2017 2362 2174 2014 2157 2184 1833 1800 1780 1847 1834 1720 1638 1744 1663 1858 1770 1913 2487 2418 2601 2750 3004
0 0 0 0 0 0 0 0 0 0 0 0 0 0 0 0 0 0 0 0 0 3 0 0 0 3 1 36 140 721 1053 1172 1280 1306 1261 1343 1083 709 1345 1190 1375 869 656 647 802 1209 1076 1128 1169 1230 1352 1225 1198 1292 1343 1065 1014 1172 1511 2084 2391 2267 2168 2093 2384 2244 2143 2085 1588 1692 1613 1570 1687 1781 1692 1754 1409 1233 1452 1560 2039 2502 2343 2846 2773 2805
0 0 0 0 0 0 0 0 0 0 0 0 0 0 0 0 0 0 0 0 0 0 0 0 0 3 1 7 518 766 946 1226 1458 1350 1500 1373 1466 1402 1193 1114 1044 857 1075 1273 1267 1160 1191 1193 1176 1230 1279 1287 1193 1285 1361 1349 1299 1652 1805 2405 2661 2343 2221 2224 2518 2530 2210 1786 1604 1784 1687 1475 1572 1400 1480 1944 1786 1507 1522 1724 1988 2257 2330 2732 2794 2830
0 0 0 0 0 0 0 0 0 0 0 0 0 0 0 0 0 0 0 0 0 0 0 0 0 0 0 518 811 446 1106 1369 1400 1509 1574 1560 1510 1470 1511 1542 1677 1572 1394 1142 1203 1215 1094 1203 1168 1202 1208 1176 1153 1171 1418 1452 1424 1810 2243 2650 2908 2640 2608 2466 2747 2800 2289 1739 1674 1822 1642 1705 1688 1394 1451 1775 1743 1570 1736 1760 1905 2108 2225 2638 2737 2822
0 0 0 0 0 0 0 0 0 0 0 0 0 0 0 0 0 0 0 0 0 0 0 0 0 0 0 163 628 485 564 500 409 482 1098 1416 1427 1428 1440 1487 1576 1623 1632 1435 1156 1211 1168 1161 1175 1167 1196 1131 1072 1151 1352 1492 1509 1997 2513 2778 2929 2789 2779 2634 3027 2996 2596 1933 1954 1795 1533 1888 1868 1632 1511 1563 1468 1650 1930 1805 2150 2493 2636 2600 2563 2639
0 0 0 0 0 0 0 0 0 0 0 0 0 0 0 0 0 0 0 0 0 0 0 0 0 0 5 110 472 558 219 558 456 408 364 1340 1682 1608 1693 1533 1463 1547 1606 1517 1424 1139 1007 1231 1189 1206 1209 1212 1074 1086 1321 1551 1670 2117 2773 3027 3200 3171 2994 2916 3210 3091 2860 2128 2063 1948 1678 1878 2213 2053 1898 1696 1656 1849 2061 1954 1926 2419 2668 2840 2768 2504
0 0 0 0 0 0 0 0 0 0 0 0 0 0 0 0 0 0 0 0 0 0 0 0 0 0 0 135 156 301 412 456 456 415 536 287 833 1779 2037 1799 1698 1532 1235 1523 1401 1264 875 865 1205 1238 1257 1284 1237 1096 1264 1483 1707 2146 2723 3170 3321 3328 3140 3126 3230 3227 2835 2277 2048 1908 1844 1969 2210 2373 1902 1992 1818 1935 2042 1876 1919 2111 2254 2598 2752 3012
0 0 0 0 0 0 0 0 0 0 0 0 0 0 0 0 0 0 0 0 0 0 0 0 0 0 0 30 35 123 334 535 478 486 491 476 489 497 1001 1978 1954 1824 1581 1579 1496 1352 1250 1201 1178 1199 1306 1399 1445 1347 1377 1472 1606 2030 2660 3224 3371 3432 3375 3174 3102 3187 2926 2523 2137 2035 1937 2132 2221 2382 2238 2096 1884 1825 1933 1903 1896 2303 2570 2747 2714 2659
0 0 0 0 0 0 0 0 0 0 0 0 0 0 0 0 0 0 0 0 0 0 0 0 0 0 78 61 70 232 376 413 443 485 519 525 613 622 586 924 1893 1908 1875 1595 1534 1093 1370 1310 1252 1261 1307 1358 1465 1441 1444 1500 1610 1947 2421 3079 3337 3600 3340 3305 3057 3069 3024 2804 2448 2266 2111 2133 2296 2376 2392 2031 1606 1596 1677 1799 1917 1903 2093 2327 2482 2293
0 0 0 0 0 0 0 0 0 0 0 0 0 0 0 0 0 0 0 0 0 0 0 0 0 0 0 408 265 251 239 277 381 422 551 544 594 761 1070 722 965 1920 1939 1889 1768 1601 1505 1524 1447 1342 1322 1366 1487 1451 1456 1586 1673 1998 2376 3108 3348 3553 3502 3394 3187 3109 3054 2881 2590 2381 2241 2202 2291 2226 2213 1979 1568 1480 1667 1478 1554 1845 1614 1828 2033 1920
0 0 0 0 0 0 0 0 0 0 0 0 0 0 0 0 0 0 0 0 0 0 0 0 0 2 297 199 240 257 142 231 194 253 404 486 574 685 818 1083 1134 1604 1832 1756 1723 1247 1742 1672 1612 1470 1414 1414 1488 1597 1497 1614 1760 1963 2417 3028 3301 3532 3534 3466 3266 3151 2971 2936 2676 2621 2552 2208 2301 2263 2171 2049 1942 1842 1751 1855 1583 1766 1917 1685 1873 2292
0 0 0 0 0 0 0 0 0 0 0 0 0 0 0 0 0 0 0 0 0 0 0 0 0 0 0 95 52 166 184 159 201 123 171 331 482 620 566 603 1123 1217 1086 1704 1788 1386 2033 1835 1726 1598 1516 1461 1476 1571 1586 1728 1810 2066 2422 2842 3205 3406 3505 3459 3453 3084 3116 3030 2782 2722 2614 2246 2248 2324 2139 1794 1971 1586 1646 1872 1855 1648 1757 1568 1738 2291
0 0 0 0 0 0 0 0 0 0 0 0 0 0 0 0 0 0 0 0 0 0 0 0 0 0 0 33 14 68 181 120 162 156 131 215 328 444 525 611 878 1186 1053 1158 1180 1850 1869 1963 1881 1524 1505 1456 1502 1652 1662 1774 1755 2095 2394 2616 3009 3192 3396 3230 3197 3008 2961 3094 2970 2883 2684 2527 2181 1991 1843 1557 1675 1779 1586 1775 1912 1576 1464 1517 1434 1450
0 0 0 0 0 0 0 0 0 0 0 0 0 0 0 0 0 0 0 0 0 0 1 0 4 2 6 47 26 70 74 76 105 118 104 96 138 278 388 484 614 575 993 1102 1069 1528 1823 1896 1902 1954 1601 1170 1521 1721 1766 1681 1714 1948 2252 2274 2369 2702 2939 2961 2771 2754 2836 2885 2757 2652 2678 2491 2236 1898 1786 1620 1615 1689 1594 1425 1619 1562 1177 1373 1570 1647
0 0 0 0 0 0 0 0 0 0 0 0 0 0 0 0 0 0 0 0 0 0 0 0 0 3 6 21 12 1 18 43 16 69 56 51 72 52 276 415 573 600 601 968 1041 1188 1226 1342 1838 1856 1883 1521 1359 1410 1608 1600 1665 1755 2058 2108 2018 2227 2604 2689 2598 2737 2777 2732 2573 2376 2642 2612 2448 2192 1909 1836 1850 1655 1746 1623 1442 1523 980 1274 1282 1577
0 0 0 0 0 0 0 0 0 0 0 0 0 0 0 0 0 0 0 0 0 0 0 10 0 14 8 2 4 20 33 34 33 46 108 63 120 291 188 357 416 579 653 823 1207 1109 1325 1725 1703 1548 1403 1402 1244 1300 1623 1419 1606 1608 1756 1838 1849 1958 2162 2356 2336 2488 2848 2687 2617 2681 2652 2599 2538 2259 2015 1904 1802 1785 1808 1730 1576 1180 1135 1143 1329 1343
2 0 0 0 0 0 0 0 0 0 0 0 0 0 0 0 0 0 0 0 0 0 4 20 1 16 8 4 5 13 11 22 12 32 34 56 175 335 624 596 462 318 620 781 960 1125 1132 1270 1737 1332 1358 1379 1321 1269 1553 1506 1550 1654 1648 1595 1711 1670 1855 1945 2131 2322 2730 2763 2654 2553 2599 2480 2457 2448 2284 1890 1729 1868 1820 1706 1709 1510 1436 1129 1454 1446
0 0 2 0 0 0 0 0 0 0 0 0 0 0 0 0 0 0 0 0 0 0 0 1 146 4 10 13 4 6 13 2 6 14 5 97 156 325 586 707 686 660 552 806 1066 1102 1162 1248 1300 1211 1271 1561 1356 1347 1226 1219 1172 1499 1522 1495 1566 1613 1686 1760 1868 2064 2552 2719 2731 2715 2605 2503 2494 2563 2330 1972 1636 1610 1524 1502 1626 1714 1657 1281 1040 1564
0 0 0 0 0 0 0 0 0 0 0 0 0 0 0 0 0 0 0 20 0 0 0 0 0 36 0 3 4 7 16 13 30 2 2 129 221 255 450 671 756 750 722 942 1081 1224 1218 1146 1194 1201 1392 1703 1788 1708 1388 1645 1558 1261 1456 1458 1183 1483 1573 1655 1737 1884 2280 2631 2655 2615 2576 2596 2350 2269 2284 1920 1677 1419 1316 998 1308 1632 1665 1458 882 824
0 0 6 0 0 0 0 0 0 0 0 0 0 0 0 0 0 0 0 0 0 5 0 0 2 0 0 0 4 8 10 27 22 5 73 166 230 385 453 646 689 766 908 938 1054 1180 1248 1171 1200 1215 1180 1309 1534 1476 1668 1597 1596 1238 1469 1359 1131 1135 1300 1587 1736 1758 2022 2387 2502 2402 2446 2422 2312 2177 2164 1880 1495 1434 1301 1011 787 1145 1472 1382 993 600
0 0 3 0 1 0 0 0 0 0 0 0 0 0 0 0 0 0 0 0 0 0 114 17 103 0 3 9 10 16 14 7 9 1 26 155 127 142 260 404 602 616 582 817 877 1092 1212 1164 1157 1185 1170 1160 1290 1263 1563 1245 1235 1530 1149 1430 1060 1082 1142 1170 1378 1682 1866 2173 2302 2320 2273 2342 2272 2069 2054 1930 1646 1424 1306 1154 848 778 1230 1385 1146 854
0 0 0 0 8 12 12 0 0 0 0 0 0 0 0 0 0 0 0 0 0 0 5 0 0 17 6 17 13 6 2 0 0 1 0 22 98 138 190 257 374 530 623 579 790 908 984 1048 1227 1210 1179 1107 1189 1281 1154 1358 1082 1048 1535 1478 1094 1251 1039 1438 1410 1697 1683 1926 2070 2254 2190 2208 2194 2158 1966 2065 1905 1570 1404 1213 997 855 858 1314 1238 883
0 0 0 0 0 0 0 0 0 0 0 0 0 0 0 0 0 0 0 0 0 0 0 0 36 58 17 4 8 3 0 0 0 0 0 0 7 4 140 291 457 514 692 772 778 848 895 1037 1149 1149 1239 1206 1191 1162 1163 1124 1070 1473 1487 1004 1153 1032 986 978 982 1223 1694 1806 2018 2168 2166 2060 2116 2173 2153 2096 2243 2063 1661 1475 1301 1183 1103 1242 1446 1068
0 0 0 0 0 0 0 0 0 0 0 0 0 0 0 0 0 0 0 0 0 0 0 0 0 3 7 6 0 0 0 0 0 0 0 0 0 0 45 110 205 369 416 626 685 622 926 1017 937 1026 1082 1176 1204 1232 1171 1113 1078 1089 1511 1757 2151 1024 1040 1010 994 1287 1556 1728 1944 2232 2220 2182 2038 2153 2317 2339 2503 2422 2155 1829 1716 1606 1548 1484 1471 1223
0 0 0 0 0 0 0 0 0 0 0 0 0 0 0 0 0 0 0 0 0 0 0 0 0 0 2 3 0 0 0 0 0 0 0 0 0 0 0 41 87 289 352 424 627 604 829 753 942 966 1004 1126 1172 1212 1192 1176 1144 1071 1046 1429 1650 1539 1014 960 992 1046 1071 1557 1868 2015 2103 2335 2286 2205 2466 2534 2672 2813 2632 2176 1977 1760 1806 1701 1702 1644
0 0 0 0 0 0 0 0 0 0 0 0 0 0 0 0 0 0 0 0 0 0 0 0 0 0 0 0 0 0 0 0 0 0 0 0 0 0 0 0 18 99 303 307 481 628 591 681 793 942 935 944 1065 1168 1164 1148 1167 1150 1180 1148 1079 1808 1667 844 809 931 1066 1588 1776 2025 2038 2198 2483 2432 2503 2750 2862 2958 2975 2546 2152 1994 2091 2058 1974 1959
0 0 0 0 0 0 0 0 0 0 0 0 0 0 0 0 0 0 0 0 0 0 0 0 0 2 3 0 0 0 0 0 0 0 0 0 0 0 0 0 0 0 154 284 235 370 468 540 646 731 821 986 1045 1072 1151 1160 1142 1158 1170 1180 1208 1395 1541 1720 824 992 1057 1572 1727 1977 2254 2350 2686 2661 2640 2725 2994 3162 3226 2799 2419 2310 2281 2204 2086 2262
0 0 0 0 0 0 0 0 0 0 0 0 0 0 0 0 0 0 0 0 4 15 0 0 0 15 0 0 1 0 0 0 0 0 0 0 0 0 0 0 0 0 0 167 433 416 422 555 596 614 607 682 756 983 1144 1151 1201 1214 1239 1255 1264 1233 1523 1809 1920 1253 1327 1336 1566 1813 2078 2468 2738 2816 2628 2917 3083 3238 3262 2968 2698 2455 2295 2162 2217 2113
0 0 0 0 0 0 0 0 0 0 0 0 0 0 0 0 0 0 0 0 0 0 2 6 0 0 0 0 0 0 0 0 0 0 0 0 0 0 0 0 0 0 0 0 0 61 207 351 486 725 664 647 610 738 853 973 1093 1156 1198 1198 1199 1287 2016 1857 2118 2504 2750 1973 1688 1726 1936 2335 2610 2891 2856 2921 3087 3136 2888 2834 2780 2442 2040 1848 1934 2146
0 0 0 0 0 0 0 0 0 0 0 0 0 0 0 0 0 0 0 0 0 0 0 0 0 0 0 0 0 0 0 0 0 0 0 0 0 0 0 0 0 0 0 0 0 0 21 96 203 285 439 618 631 670 759 850 764 894 969 1065 1062 1068 1052 1923 2492 2170 2316 2458 1834 1289 1801 2173 1964 2528 2722 2911 2863 2896 2943 2818 2689 2510 2053 1633 1655 1861
0 0 0 0 0 0 0 0 0 0 0 0 0 0 0 0 0 0 0 0 0 0 0 1 6 6 2 3 0 1 0 0 0 2 0 0 0 0 0 0 0 0 0 0 0 0 0 0 0 0 189 259 540 617 691 719 668 720 763 858 973 975 898 1279 1884 1865 2202 2208 2542 2597 2316 1951 1857 2300 2461 2651 2738 2870 3026 2886 2699 2576 2460 2066 1649 1661
0 0 0 0 0 0 0 0 0 6 0 0 0 0 0 0 0 0 0 0 0 0 0 8 11 14 6 6 3 0 0 0 4 14 0 0 0 0 0 0 0 0 0 0 0 0 0 0 0 0 0 0 0 423 519 599 634 708 700 798 816 921 957 991 945 868 1157 1507 1657 2023 2181 2396 2449 2812 2505 2652 2541 2579 2797 2736 2620 2626 2562 2328 1989 1770
0 14 0 0 0 0 0 0 0 0 0 0 0 0 0 0 0 0 0 0 4 0 0 5 22 4 14 4 4 3 0 1 7 22 0 0 0 0 0 0 0 0 0 0 0 0 0 0 0 0 0 0 0 0 250 408 515 519 623 705 754 733 801 861 910 750 672 741 830 1368 1750 1934 1976 1938 1975 2333 2302 2225 2498 2668 2570 2723 2619 2375 2145 1901
0 0 0 0 0 0 0 0 0 0 2 3 0 0 0 0 0 0 0 0 11 0 0 0 0 13 12 13 8 1 0 1 0 5 0 0 0 0 0 0 0 0 0 0 0 0 0 0 0 0 0 0 0 0 0 74 347 405 436 505 574 736 802 850 834 902 943 986 924 893 1440 1844 2026 1916 1896 1947 2022 2170 2110 2372 2548 2557 2507 2359 2319 2335
0 0 0 0 0 0 0 0 0 0 0 0 0 0 0 0 0 0 0 4 0 0 0 0 0 0 6 9 3 0 0 0 0 7 0 0 0 0 0 0 0 0 0 0 0 0 0 0 0 0 0 0 0 0 0 0 0 224 358 386 493 542 580 677 743 825 917 1017 1007 982 990 1792 1867 2088 2099 2045 1950 1885 2256 2073 2109 2322 2399 2584 2320 2275
0 0 0 0 0 0 0 0 0 0 0 0 0 0 0 0 0 0 0 47 0 0 0 0 0 0 4 1 0 0 0 3 0 0 0 0 0 0 0 0 0 0 0 0 0 0 0 0 0 0 0 0 0 0 0 0 0 0 96 236 336 362 387 478 607 684 790 849 1030 1081 1058 1150 1595 2000 2225 2045 2239 2296 2075 2102 2446 2447 2268 2184 2356 2450
1 2 0 0 0 0 0 0 0 0 3 0 0 0 0 0 0 0 30 0 1 2 0 0 0 0 0 0 0 0 0 0 0 0 0 0 0 0 0 0 0 0 0 0 0 0 0 0 0 0 0 0 0 0 0 0 0 0 0 0 47 130 0 311 514 624 661 713 714 859 917 1361 1125 1440 1867 2065 2293 2311 2321 2141 2152 2137 2455 2240 2055 2306
1 0 0 0 0 0 1 0 0 0 28 0 0 0 0 0 0 9 6 2 0 3 3 0 0 0 0 0 0 0 0 0 0 0 0 0 0 0 0 0 0 0 0 0 0 0 0 0 0 0 0 0 0 0 0 0 0 0 0 0 0 0 0 50 241 261 369 431 454 526 564 640 798 1197 1441 1550 1801 1816 1994 2108 2373 2438 2366 2396 2372 2172
4 0 0 0 0 0 0 0 0 5 13 0 0 0 5 0 4 5 0 1 13 0 0 0 0 0 0 0 0 0 0 0 0 0 0 0 0 0 0 0 0 0 0 0 0 0 0 0 0 0 0 0 0 0 0 0 0 0 0 0 1 0 0 0 0 174 296 344 292 407 408 427 448 478 561 1126 1462 1602 1772 2034 2132 2510 2601 2453 2461 2127
15 0 116 76 23 0 0 0 68 0 0 0 0 0 1 11 2 3 0 0 0 0 6 0 0 0 0 0 0 0 0 0 0 0 0 0 0 0 0 0 0 0 0 0 0 0 0 0 0 0 0 0 0 0 0 0 0 0 0 0 0 0 0 0 0 0 12 220 248 255 344 397 371 449 452 437 665 1161 1889 1868 1754 2024 2380 2101 2268 2234
28 24 92 0 0 0 0 0 3 0 0 0 0 0 0 0 0 0 0 0 0 0 0 0 0 0 0 0 0 0 0 0 0 0 0 0 0 0 0 0 0 0 0 0 0 0 0 0 0 0 0 0 0 0 0 0 0 0 0 0 0 0 0 0 0 0 2 51 1 100 127 214 221 268 238 253 562 890 1127 1608 1920 2004 2006 2029 2184 2251
0 0 0 0 3 0 0 0 0 0 0 0 0 0 0 0 0 0 0 0 0 0 0 0 0 0 0 0 0 0 0 0 0 0 0 0 0 0 0 0 0 0 0 0 0 0 0 0 0 0 0 0 0 0 0 0 0 0 0 0 0 0 0 0 0 1 0 1 46 0 3 1 212 265 156 172 399 566 1014 1246 1447 1635 1843 1948 1880 1973
7 0 0 0 0 0 0 2 0 0 0 0 0 0 0 0 0 0 0 0 0 0 0 0 0 0 0 0 0 0 0 0 0 0 0 0 0 0 0 0 0 0 0 0 0 0 0 0 0 0 0 0 0 0 0 0 0 0 0 0 0 0 0 0 0 0 0 0 0 2 2 10 16 121 223 251 452 368 325 1054 1500 1730 1839 2020 1953 1923
75 0 0 0 0 0 0 0 0 1 1 0 0 0 0 0 0 0 0 0 0 0 0 0 0 0 0 0 0 0 0 0 0 0 0 0 0 1 0 0 0 0 0 0 0 0 0 0 0 0 2 0 0 0 0 0 0 0 0 0 0 0 0 0 0 0 0 0 0 0 6 9 14 85 124 160 181 196 231 174 669 1358 2058 2097 2149 2162
0 0 0 0 0 0 4 50 0 0 0 1 6 0 0 0 0 0 0 0 0 0 0 0 0 0 0 0 0 0 0 0 0 0 0 0 0 1 2 0 2 1 0 0 0 0 0 0 0 0 0 0 0 0 0 0 0 0 0 0 1 1 0 0 0 0 0 0 0 0 0 0 7 34 73 81 124 116 125 117 36 253 323 723 812 934
12 10 2 0 0 0 5 0 0 0 4 0 8 10 5 0 0 0 0 0 0 0 0 0 0 0 0 1 5 4 5 3 1 0 0 0 0 0 0 0 1 0 0 0 0 0 0 0 0 0 0 0 0 0 0 0 0 0 0 0 0 0 0 1 0 0 0 0 0 0 0 0 0 0 60 111 130 212 353 334 385 28 0 370 470 512
Wind_Speed
nan nan nan nan nan nan nan nan nan nan nan nan nan nan nan nan nan nan nan 23 15 13 16 nan nan nan nan 9 13 16 16 15 15 13 11 9 8 7 7 5 3 2 1 2 5 5 5 4 3 1 0 2 2 3 3 2 2 5 9 10 9 9 8 9 10 10 10 9 9 9 10 10 9 9 8 8 7 5 4 2 3 3 4 4 4 3
nan nan nan nan nan nan nan nan nan nan nan nan nan nan nan nan nan nan nan nan nan nan 12 nan nan nan nan nan 14 16 14 11 11 10 9 9 9 9 7 6 3 3 3 3 4 5 6 3 4 3 1 1 2 3 3 2 2 4 8 10 10 11 10 9 9 10 9 8 8 8 8 9 9 8 8 8 7 6 4 3 4 5 4 3 4 3
nan nan nan nan nan nan nan nan nan nan nan nan nan nan nan nan nan nan nan nan nan nan nan nan nan nan nan nan 12 12 10 11 9 8 8 8 7 9 6 4 2 2 0 2 3 4 4 4 5 3 2 1 2 3 2 1 1 3 9 12 12 12 10 9 9 9 8 7 8 8 8 9 9 8 8 8 8 7 5 3 4 5 5 4 4 3
nan nan nan nan nan nan nan nan nan nan nan nan nan nan nan nan nan nan nan nan nan nan nan nan nan nan nan nan 11 10 9 10 9 9 11 9 7 6 4 6 4 2 4 2 2 4 3 3 2 3 3 1 3 4 2 2 2 4 9 13 13 13 11 9 8 7 7 7 7 9 9 9 10 9 10 10 10 8 8 4 3 5 5 4 4 3
nan nan nan nan nan nan nan nan nan nan nan nan nan nan nan nan nan nan nan nan nan nan nan nan nan nan nan nan 14 11 9 10 10 9 11 10 9 7 6 11 8 5 6 4 2 3 3 2 3 3 2 2 2 4 4 3 3 6 6 12 14 14 11 10 7 6 7 7 7 9 11 11 12 12 10 9 8 7 7 7 5 4 5 4 4 2
nan nan nan nan nan nan nan nan nan nan nan nan nan nan nan nan nan nan nan nan nan nan nan nan nan nan nan nan nan 17 13 11 12 11 11 12 12 10 10 10 11 6 6 3 4 4 5 4 4 3 3 3 2 4 5 4 4 4 6 9 13 15 13 10 7 6 8 8 9 9 10 10 10 9 8 7 6 5 5 7 6 4 4 3 3 2
nan nan nan nan nan nan nan nan nan nan nan nan nan nan nan nan nan nan nan nan nan nan nan nan nan nan nan nan 22 21 19 16 16 14 14 14 14 13 11 7 7 8 5 4 3 5 7 7 5 5 3 3 3 4 6 5 4 3 4 7 12 15 14 11 8 6 9 9 10 9 9 10 8 7 7 7 6 6 6 7 6 6 5 5 4 2
nan nan nan nan nan nan nan nan nan nan nan nan nan nan nan nan nan nan nan nan nan nan nan nan nan nan nan nan 31 27 27 25 22 20 17 17 14 13 13 11 8 5 5 4 3 4 5 8 7 6 5 3 3 4 5 5 5 4 4 5 10 15 14 13 10 7 9 11 11 10 9 9 7 6 6 6 7 8 8 8 7 7 6 5 5 4
nan nan nan nan nan nan nan nan nan nan nan nan nan nan nan nan nan nan nan nan nan nan nan nan nan nan nan 30 31 27 32 29 27 23 20 18 15 15 13 11 10 8 7 6 3 1 3 6 7 6 6 5 5 5 5 6 6 6 5 5 8 14 15 13 10 9 9 11 11 10 9 8 8 7 8 8 8 8 8 8 8 8 7 7 5 5
nan nan nan nan nan nan nan nan nan nan nan nan nan nan nan nan nan nan nan nan nan nan nan nan nan nan nan 28 29 35 37 35 32 29 24 19 16 15 15 14 12 11 10 7 5 4 3 4 5 6 6 6 5 5 6 6 6 7 6 5 6 12 15 15 11 10 10 10 11 10 8 6 7 8 9 9 9 9 9 8 8 8 9 8 6 5
nan nan nan nan nan nan nan nan nan nan nan nan nan nan nan nan nan nan nan nan nan nan nan nan nan nan nan 30 35 34 35 36 32 31 32 27 19 16 16 15 15 13 11 10 8 7 5 5 5 7 7 7 6 5 7 6 5 7 7 6 6 11 16 15 12 11 10 10 9 8 6 5 6 6 8 9 9 9 8 8 7 8 8 9 7 5
nan nan nan nan nan nan nan nan nan nan nan nan nan nan nan nan nan nan nan nan nan nan nan nan nan nan nan 26 34 38 35 37 34 33 32 29 28 22 16 16 14 13 13 11 10 10 7 6 5 5 6 7 7 6 8 6 5 6 7 7 7 10 14 16 14 12 11 9 7 7 5 5 6 6 8 7 7 7 6 7 7 8 9 8 7 6
nan nan nan nan nan nan nan nan nan nan nan nan nan nan nan nan nan nan nan nan nan nan nan nan nan nan nan nan nan 37 41 37 36 35 33 31 29 27 24 16 15 14 14 12 11 11 9 8 6 4 4 5 5 5 7 7 5 5 7 8 7 9 13 15 14 12 11 9 7 6 5 5 7 6 6 6 6 7 7 7 8 8 8 7 6 4
nan nan nan nan nan nan nan nan nan nan nan nan nan nan nan nan nan nan nan nan nan nan nan nan nan nan nan nan nan 40 41 38 38 36 34 34 30 29 24 21 16 15 14 13 13 10 9 8 7 6 5 3 2 4 5 5 4 5 6 7 6 9 12 15 15 14 12 10 8 6 6 6 7 6 6 6 6 6 8 8 9 8 7 6 4 2
nan nan nan nan nan nan nan nan nan nan nan nan nan nan nan nan nan nan nan nan nan nan nan nan nan nan nan 37 36 40 40 39 39 38 36 35 34 30 27 21 17 15 14 14 13 10 8 7 7 8 7 4 2 2 2 2 3 4 5 7 6 9 12 14 15 15 13 12 9 7 6 7 8 7 6 6 7 7 8 9 9 9 9 7 5 4
nan nan nan nan nan nan nan nan nan nan nan nan nan nan nan nan nan nan nan nan nan nan nan nan nan nan 40 38 40 39 41 42 40 41 40 39 38 34 31 33 28 17 15 14 13 10 7 8 8 8 8 6 4 2 1 2 2 3 5 7 7 8 11 14 16 16 15 13 11 7 6 6 7 8 8 8 8 9 9 10 10 10 9 9 7 6
nan nan nan nan nan nan nan nan nan nan nan nan nan nan nan nan nan nan nan nan nan nan nan nan nan nan nan nan nan 45 44 45 43 43 43 42 40 37 35 34 33 32 27 17 12 10 9 9 8 7 7 7 5 3 0 1 2 4 6 7 8 8 11 14 16 16 16 14 11 8 6 6 7 7 6 7 7 6 9 10 10 10 9 8 9 8
nan nan nan nan nan nan nan nan nan nan nan nan nan nan nan nan nan nan nan nan nan nan nan nan nan nan nan nan nan nan 48 48 47 46 45 45 43 41 39 37 36 35 32 30 24 11 11 10 8 7 7 7 7 6 4 4 4 5 6 8 8 9 9 12 16 17 17 14 12 10 7 7 7 7 6 7 8 8 9 10 11 11 10 10 9 8
nan nan nan nan nan nan nan nan nan nan nan nan nan nan nan nan nan nan nan nan nan nan nan nan nan nan nan nan nan nan nan nan 49 47 47 nan 46 43 42 41 39 36 33 29 25 19 14 13 11 8 8 9 10 9 9 8 7 7 6 7 7 8 10 12 17 19 19 16 16 14 10 8 8 9 9 8 8 10 9 9 9 9 10 10 9 9
nan nan nan nan nan nan nan nan nan nan nan nan nan nan nan nan nan nan nan nan nan nan nan nan nan nan nan nan nan nan nan nan nan nan nan nan nan nan 43 42 40 36 32 29 23 19 15 14 13 10 9 10 11 10 11 10 10 7 7 7 8 10 11 11 14 18 18 17 16 15 13 11 11 11 10 9 9 10 10 9 10 10 9 9 10 9
nan nan nan nan nan nan nan nan nan nan nan nan nan nan nan nan nan nan nan nan nan nan nan nan nan nan nan nan nan nan nan nan nan nan 45 nan 47 46 45 43 40 38 34 33 28 17 18 17 16 15 14 14 13 13 14 13 11 9 9 8 7 9 10 10 12 16 20 20 17 15 13 12 12 11 11 9 9 9 11 11 10 10 10 11 10 10
nan nan nan nan nan nan nan nan nan nan nan nan nan nan nan nan nan nan nan nan nan nan nan nan nan nan nan nan nan nan nan nan nan nan nan nan 48 47 46 45 43 39 37 36 36 35 29 18 17 20 19 13 11 11 13 14 14 13 11 10 9 9 10 11 12 16 19 21 20 17 16 14 14 14 13 10 9 9 11 11 11 10 10 10 10 10
nan nan nan nan nan nan nan nan nan nan nan nan nan nan nan nan nan nan nan nan nan nan nan nan 33 nan nan nan nan nan nan nan nan nan nan nan 48 49 47 47 45 44 42 41 39 36 36 39 38 28 16 13 14 14 14 14 15 15 14 12 11 9 9 11 13 15 19 21 21 19 19 17 16 15 13 11 10 9 10 11 11 11 10 9 10 10
nan nan nan nan nan nan nan nan nan nan nan nan nan nan nan nan nan nan nan nan nan nan nan nan nan nan nan nan nan nan nan nan nan nan nan 46 48 50 49 49 49 47 46 44 41 38 38 38 38 39 40 29 17 18 14 16 15 16 17 15 14 10 9 11 13 15 18 19 20 21 20 19 17 15 15 12 11 10 10 12 12 12 10 9 10 10
nan nan nan nan nan nan nan nan nan nan nan nan nan nan nan nan nan nan nan nan nan nan nan nan nan nan nan nan nan nan nan nan nan nan nan 48 49 50 51 51 50 50 49 49 46 44 43 43 41 39 37 38 36 21 18 19 17 18 18 17 16 14 13 13 14 15 17 17 18 20 21 19 18 17 15 14 14 11 12 12 13 14 12 11 10 10
nan nan nan nan nan nan nan nan nan nan nan nan nan nan nan nan nan nan nan nan nan nan 41 nan 44 nan nan nan nan nan nan nan nan nan nan 48 49 51 52 54 53 51 51 51 50 49 47 42 41 41 40 39 39 39 30 19 19 19 19 19 18 17 19 16 15 15 17 18 19 20 19 20 20 18 17 16 16 15 14 14 13 14 15 13 12 12
nan nan nan nan nan nan nan nan nan nan nan nan nan nan nan nan nan nan nan nan nan nan nan nan nan nan nan nan nan nan nan nan nan nan nan nan nan 51 52 53 53 52 51 53 52 50 48 47 46 42 41 39 40 38 37 37 24 17 20 21 20 21 23 17 15 15 16 19 19 20 19 21 21 22 21 21 20 20 19 17 15 15 16 16 15 13
nan nan nan nan nan nan nan nan nan nan nan nan nan nan nan nan nan nan nan nan nan nan nan nan nan nan nan nan nan nan nan nan nan nan nan nan nan nan 53 54 58 57 54 54 57 56 53 50 47 45 42 41 40 38 38 36 38 36 31 22 22 22 20 21 16 15 17 19 20 21 20 21 23 24 25 25 25 23 21 19 18 18 18 18 16 15
nan nan nan nan nan nan nan nan nan nan nan nan nan nan nan nan nan nan nan nan nan nan nan nan nan nan nan nan nan nan nan nan nan nan nan nan nan nan nan 59 61 60 58 58 58 57 56 54 51 48 46 44 43 42 39 38 38 36 36 37 32 23 21 20 19 17 18 19 19 20 22 24 26 27 27 28 28 26 24 22 21 21 20 19 18 18
nan nan nan nan nan nan nan nan nan nan nan nan nan nan nan nan nan nan nan nan nan nan nan nan nan nan nan nan nan nan nan nan nan nan nan nan nan nan nan nan nan 62 61 60 59 60 58 56 55 52 50 49 48 45 43 40 38 36 35 35 32 29 24 22 20 20 19 20 19 19 23 27 28 29 29 29 29 29 27 26 24 22 21 20 20 20
nan nan nan nan nan nan nan nan nan nan nan nan nan nan nan nan nan nan nan nan nan nan nan nan nan nan nan nan nan nan nan nan nan nan nan nan nan nan nan nan nan nan 62 60 61 62 60 60 58 56 55 52 50 48 45 43 39 38 36 34 32 32 29 24 23 21 20 19 20 21 23 26 28 30 30 30 31 31 30 29 27 26 24 23 22 21
nan nan nan nan nan nan nan nan nan nan nan nan nan nan nan nan nan nan nan nan nan nan nan nan nan nan nan nan nan nan nan nan nan nan nan nan nan nan nan nan nan nan 60 60 62 62 62 62 61 60 57 55 53 51 48 45 45 43 40 39 36 30 29 27 23 23 23 20 22 22 23 24 27 29 31 32 32 32 32 32 30 29 27 26 24 24
nan nan nan nan nan nan nan nan nan nan nan nan nan nan nan nan nan nan nan nan nan nan nan nan nan nan nan nan nan nan nan nan nan nan nan nan nan nan nan nan nan nan nan 59 60 62 62 61 61 60 58 55 54 53 51 48 48 46 43 40 39 35 30 30 29 27 25 23 23 23 23 23 25 27 29 31 32 34 35 35 33 30 29 27 27 26
nan nan nan nan nan nan nan nan nan nan nan nan nan nan nan nan nan nan nan nan nan nan nan nan nan nan nan nan nan nan nan nan nan nan nan nan nan nan nan nan nan nan nan nan nan nan 59 59 59 59 58 56 55 55 52 52 51 50 46 44 41 39 36 33 31 34 36 29 27 26 25 25 24 24 26 28 31 34 34 34 33 31 31 32 31 29
nan nan nan nan nan nan nan nan nan nan nan nan nan nan nan nan nan nan nan nan nan nan nan nan nan nan nan nan nan nan nan nan nan nan nan nan nan nan nan nan nan nan nan nan nan nan nan nan 58 59 59 58 57 55 54 54 54 53 51 49 46 44 39 38 38 34 34 36 33 29 28 28 26 22 23 25 28 30 32 33 33 32 33 33 32 30
nan nan nan nan nan nan nan nan nan nan nan nan nan nan nan nan nan nan nan nan nan nan nan nan nan nan nan nan nan nan nan nan nan nan nan nan nan nan nan nan nan nan nan nan nan nan nan nan nan nan 55 55 55 56 56 54 53 55 54 52 50 50 49 46 41 38 42 44 43 37 33 30 28 26 24 24 25 26 28 31 32 33 34 34 33 32
nan nan nan nan nan nan nan nan nan nan nan nan nan nan nan nan nan nan nan nan nan nan nan nan nan nan nan nan nan nan nan nan nan nan nan nan nan nan nan nan nan nan nan nan nan nan nan nan nan nan nan nan nan 53 55 55 54 52 53 53 53 51 51 50 49 49 49 47 42 41 38 34 31 30 27 26 24 23 25 28 30 32 34 34 33 32
nan nan nan nan nan nan nan nan nan nan nan nan nan nan nan nan nan nan nan nan nan nan nan nan nan nan nan nan nan nan nan nan nan nan nan nan nan nan nan nan nan nan nan nan nan nan nan nan nan nan nan nan nan nan 50 53 55 53 51 51 52 52 52 52 52 51 49 44 41 40 40 37 34 31 29 28 25 22 23 25 27 29 31 31 31 30
nan nan nan nan nan nan nan nan nan nan nan nan nan nan nan nan nan nan nan nan nan nan nan nan nan nan nan nan nan nan nan nan nan nan nan nan nan nan nan nan nan nan nan nan nan nan nan nan nan nan nan nan nan nan nan nan 53 55 52 50 50 51 52 53 53 53 49 45 40 39 39 39 38 36 33 30 28 25 22 22 23 26 27 27 29 29
nan nan nan nan nan nan nan nan nan nan nan nan nan nan nan nan nan nan nan nan nan nan nan nan nan nan nan nan nan nan nan nan nan nan nan nan nan nan nan nan nan nan nan nan nan nan nan nan nan nan nan nan nan nan nan nan nan 53 54 53 50 50 52 54 52 50 48 46 43 41 39 37 38 38 35 33 31 28 26 24 22 21 22 23 25 25
nan nan nan nan nan nan nan nan nan nan nan nan nan nan nan nan nan nan nan nan nan nan nan nan nan nan nan nan nan nan nan nan nan nan nan nan nan nan nan nan nan nan nan nan nan nan nan nan nan nan nan nan nan nan nan nan nan nan nan 53 52 52 52 52 50 48 47 46 45 44 43 42 38 36 36 35 34 32 29 29 26 22 21 22 24 25
nan nan nan nan nan nan nan nan nan nan nan nan nan nan nan nan nan nan nan nan nan nan nan nan nan nan nan nan nan nan nan nan nan nan nan nan nan nan nan nan nan nan nan nan nan nan nan nan nan nan nan nan nan nan nan nan nan nan nan nan nan 51 nan 50 49 47 47 46 45 44 45 45 45 39 37 38 40 39 35 32 30 28 26 25 25 25
nan nan nan nan nan nan nan nan nan nan nan nan nan nan nan nan nan nan nan nan nan nan nan nan nan nan nan nan nan nan nan nan nan nan nan nan nan nan nan nan nan nan nan nan nan nan nan nan nan nan nan nan nan nan nan nan nan nan nan nan nan nan nan nan 50 49 47 47 47 46 45 44 45 46 44 39 36 37 38 37 34 31 31 30 30 27
nan nan nan nan nan nan nan nan nan nan nan nan nan nan nan nan nan nan nan nan nan nan nan nan nan nan nan nan nan nan nan nan nan nan nan nan nan nan nan nan nan nan nan nan nan nan nan nan nan nan nan nan nan nan nan nan nan nan nan nan nan nan nan nan nan 50 49 49 49 47 46 44 44 44 44 44 41 37 36 36 35 35 35 34 33 30
nan nan 23 nan nan nan nan nan nan nan nan nan nan nan nan nan nan nan nan nan nan nan nan nan nan nan nan nan nan nan nan nan nan nan nan nan nan nan nan nan nan nan nan nan nan nan nan nan nan nan nan nan nan nan nan nan nan nan nan nan nan nan nan nan nan nan nan 49 49 48 46 45 43 42 42 42 41 39 38 35 35 35 36 35 33 32
nan nan nan nan nan nan nan nan nan nan nan nan nan nan nan nan nan nan nan nan nan nan nan nan nan nan nan nan nan nan nan nan nan nan nan nan nan nan nan nan nan nan nan nan nan nan nan nan nan nan nan nan nan nan nan nan nan nan nan nan nan nan nan nan nan nan nan nan nan 48 48 47 44 44 43 41 42 40 39 38 36 35 34 33 34 35
nan nan nan nan nan nan nan nan nan nan nan nan nan nan nan nan nan nan nan nan nan nan nan nan nan nan nan nan nan nan nan nan nan nan nan nan nan nan nan nan nan nan nan nan nan nan nan nan nan nan nan nan nan nan nan nan nan nan nan nan nan nan nan nan nan nan nan nan nan nan nan nan 47 48 46 43 42 42 42 40 38 37 34 33 33 34
nan nan nan nan nan nan nan nan nan nan nan nan nan nan nan nan nan nan nan nan nan nan nan nan nan nan nan nan nan nan nan nan nan nan nan nan nan nan nan nan nan nan nan nan nan nan nan nan nan nan nan nan nan nan nan nan nan nan nan nan nan nan nan nan nan nan nan nan nan nan nan nan nan 47 46 45 43 43 44 43 41 38 36 35 34 34
nan nan nan nan nan nan nan nan nan nan nan nan nan nan nan nan nan nan nan nan nan nan nan nan nan nan nan nan nan nan nan nan nan nan nan nan nan nan nan nan nan nan nan nan nan nan nan nan nan nan nan nan nan nan nan nan nan nan nan nan nan nan nan nan nan nan nan nan nan nan nan nan nan nan 46 45 43 43 43 44 43 41 39 38 38 35
nan nan nan nan nan nan nan nan nan nan nan nan nan nan nan nan nan nan nan nan nan nan nan nan nan nan nan nan nan nan nan nan nan nan nan nan nan nan nan nan nan nan nan nan nan nan nan nan nan nan nan nan nan nan nan nan nan nan nan nan nan nan nan nan nan nan nan nan nan nan nan nan nan nan nan nan 43 44 45 43 nan 38 38 39 41 39
nan nan nan nan nan nan nan nan nan nan nan nan nan nan nan nan nan nan nan nan nan nan nan nan nan nan nan nan nan nan nan nan nan nan nan nan nan nan nan nan nan nan nan nan nan nan nan nan nan nan nan nan nan nan nan nan nan nan nan nan nan nan nan nan nan nan nan nan nan nan nan nan nan nan nan 46 41 42 44 45 42 nan nan 34 36 34
Wind_Direction
nan nan nan nan nan nan nan nan nan nan nan nan nan nan nan nan nan nan nan 208 189 183 175 nan nan nan nan 234 216 215 216 207 204 199 191 195 204 197 186 190 195 198 91 320 344 359 358 358 351 5 274 172 190 201 243 253 214 189 190 190 191 183 177 183 179 175 170 171 170 167 157 161 165 160 155 142 141 128 130 139 104 96 106 114 114 114
nan nan nan nan nan nan nan nan nan nan nan nan nan nan nan nan nan nan nan nan nan nan 203 nan nan nan nan nan 217 214 217 216 216 214 207 208 213 207 194 195 205 234 152 342 333 357 2 359 343 340 261 199 223 208 229 240 215 194 188 189 195 194 187 183 182 180 171 169 163 166 162 161 165 163 153 155 149 147 169 155 134 117 136 131 123 121
nan nan nan nan nan nan nan nan nan nan nan nan nan nan nan nan nan nan nan nan nan nan nan nan nan nan nan nan 224 217 207 208 225 238 238 232 234 225 210 232 242 283 36 335 334 347 0 2 341 325 300 234 222 244 259 258 266 200 186 189 195 198 196 187 187 181 171 166 161 159 172 160 167 164 162 167 165 162 162 154 135 138 143 130 127 120
nan nan nan nan nan nan nan nan nan nan nan nan nan nan nan nan nan nan nan nan nan nan nan nan nan nan nan nan 229 221 213 218 236 259 256 252 261 272 299 308 294 301 276 303 329 339 348 347 332 314 311 298 232 230 234 257 277 205 189 194 195 198 199 195 191 178 171 169 176 167 176 173 174 177 178 176 178 166 158 155 151 143 139 123 121 110
nan nan nan nan nan nan nan nan nan nan nan nan nan nan nan nan nan nan nan nan nan nan nan nan nan nan nan nan 231 234 232 231 250 270 283 292 290 287 318 311 316 295 276 278 300 320 326 332 318 307 307 318 250 222 225 227 234 202 204 201 199 197 198 198 197 184 180 185 185 178 183 188 188 184 177 170 165 160 156 142 141 141 140 137 128 126
nan nan nan nan nan nan nan nan nan nan nan nan nan nan nan nan nan nan nan nan nan nan nan nan nan nan nan nan nan 243 245 245 252 268 281 283 288 298 315 317 298 280 267 273 313 317 316 302 285 300 326 340 282 234 227 230 242 227 222 210 205 198 194 193 200 190 188 190 191 187 185 191 191 181 170 160 157 162 164 141 149 160 142 149 136 142
nan nan nan nan nan nan nan nan nan nan nan nan nan nan nan nan nan nan nan nan nan nan nan nan nan nan nan nan 229 239 244 249 250 252 258 263 273 286 274 269 281 287 290 308 343 322 321 311 304 315 325 326 309 264 238 240 251 270 251 223 211 203 195 191 193 194 192 196 194 195 190 191 192 179 171 164 166 177 180 166 164 170 169 169 150 172
nan nan nan nan nan nan nan nan nan nan nan nan nan nan nan nan nan nan nan nan nan nan nan nan nan nan nan nan 220 229 236 240 243 246 243 255 263 260 265 275 270 270 281 283 325 337 327 315 313 322 320 307 308 291 258 245 249 269 263 244 215 203 199 193 190 194 197 199 201 207 199 190 176 173 181 181 182 194 186 186 170 172 176 187 163 187
nan nan nan nan nan nan nan nan nan nan nan nan nan nan nan nan nan nan nan nan nan nan nan nan nan nan nan 225 219 221 234 232 237 239 243 241 250 260 262 256 259 248 244 242 227 295 322 309 313 308 306 310 323 310 279 249 245 252 260 256 220 204 203 197 194 196 206 204 205 209 210 188 174 176 186 189 192 197 190 191 180 174 181 192 188 183
nan nan nan nan nan nan nan nan nan nan nan nan nan nan nan nan nan nan nan nan nan nan nan nan nan nan nan 230 223 224 224 226 226 229 233 240 243 252 257 259 255 250 246 237 220 202 212 281 296 292 289 311 325 312 291 275 256 259 261 268 231 205 199 200 198 197 212 217 211 210 206 192 182 185 191 192 195 193 194 185 184 181 178 183 196 205
nan nan nan nan nan nan nan nan nan nan nan nan nan nan nan nan nan nan nan nan nan nan nan nan nan nan nan 218 217 213 216 216 215 222 222 222 236 242 243 251 252 254 252 246 234 220 205 229 261 283 302 318 331 314 312 307 277 268 274 277 246 209 200 201 201 202 214 224 220 210 203 193 191 194 201 198 192 194 195 181 180 182 182 178 193 204
nan nan nan nan nan nan nan nan nan nan nan nan nan nan nan nan nan nan nan nan nan nan nan nan nan nan nan 227 217 218 220 216 211 215 218 216 217 226 241 240 244 249 250 254 258 248 218 227 240 270 305 323 341 340 331 332 298 272 270 274 257 215 204 200 200 205 213 222 222 205 195 191 196 203 205 201 188 191 192 181 181 184 186 184 195 199
nan nan nan nan nan nan nan nan nan nan nan nan nan nan nan nan nan nan nan nan nan nan nan nan nan nan nan nan nan 217 214 213 211 211 213 212 213 213 215 231 238 235 237 241 249 254 255 249 245 264 288 308 338 348 341 342 320 276 269 285 265 223 210 202 198 202 214 223 218 204 187 187 203 204 201 204 187 188 190 186 185 189 187 192 188 206
nan nan nan nan nan nan nan nan nan nan nan nan nan nan nan nan nan nan nan nan nan nan nan nan nan nan nan nan nan 217 214 210 209 211 212 211 211 212 210 210 229 232 229 232 239 250 256 251 254 260 265 273 292 354 341 349 326 265 252 279 267 232 220 207 198 199 212 223 219 206 186 191 212 209 205 207 195 189 190 191 184 183 186 184 168 178
nan nan nan nan nan nan nan nan nan nan nan nan nan nan nan nan nan nan nan nan nan nan nan nan nan nan nan 222 213 221 216 210 209 209 211 212 211 213 213 216 217 226 227 224 229 250 257 258 266 262 262 262 263 343 355 352 318 264 248 264 264 239 227 216 204 200 208 217 223 210 191 196 213 214 212 211 204 197 193 191 189 183 175 166 163 164
nan nan nan nan nan nan nan nan nan nan nan nan nan nan nan nan nan nan nan nan nan nan nan nan nan nan 226 226 220 218 219 213 208 209 209 210 213 215 215 214 212 221 226 221 229 227 258 273 273 262 259 261 260 293 48 9 302 274 241 251 261 248 235 222 211 203 207 214 220 220 207 204 214 217 214 216 215 205 196 196 189 189 172 162 168 177
nan nan nan nan nan nan nan nan nan nan nan nan nan nan nan nan nan nan nan nan nan nan nan nan nan nan nan nan nan 217 216 212 207 206 207 208 211 215 215 211 208 206 206 215 230 231 249 263 279 267 255 250 258 254 277 245 274 274 245 237 247 245 236 228 219 211 210 212 217 221 220 218 225 229 224 219 222 210 205 199 194 186 174 164 167 178
nan nan nan nan nan nan nan nan nan nan nan nan nan nan nan nan nan nan nan nan nan nan nan nan nan nan nan nan nan nan 211 209 205 205 205 208 209 212 213 212 207 202 199 199 200 227 244 256 268 260 234 232 234 236 227 235 244 248 239 240 243 243 239 227 220 216 214 215 213 214 216 222 231 232 226 212 214 213 206 206 196 186 183 171 178 181
nan nan nan nan nan nan nan nan nan nan nan nan nan nan nan nan nan nan nan nan nan nan nan nan nan nan nan nan nan nan nan nan 205 204 205 nan 208 209 210 210 210 207 201 197 198 207 238 249 255 259 238 218 224 227 224 232 242 243 245 234 235 243 245 233 217 215 214 216 210 208 208 218 231 234 229 216 208 210 209 202 204 192 188 185 187 193
nan nan nan nan nan nan nan nan nan nan nan nan nan nan nan nan nan nan nan nan nan nan nan nan nan nan nan nan nan nan nan nan nan nan nan nan nan nan 209 210 209 208 205 198 196 198 217 239 248 258 246 230 224 228 235 242 238 251 249 241 223 226 237 236 224 219 217 219 214 211 210 212 223 237 236 229 218 213 214 210 201 200 195 193 199 202
nan nan nan nan nan nan nan nan nan nan nan nan nan nan nan nan nan nan nan nan nan nan nan nan nan nan nan nan nan nan nan nan nan nan 208 nan 207 207 209 209 209 209 206 203 203 207 205 218 234 241 237 219 210 228 242 249 254 248 245 245 236 232 234 236 228 223 217 219 220 221 220 218 225 235 242 243 235 221 218 214 207 202 198 208 204 206
nan nan nan nan nan nan nan nan nan nan nan nan nan nan nan nan nan nan nan nan nan nan nan nan nan nan nan nan nan nan nan nan nan nan nan nan 207 208 208 209 210 208 208 208 206 208 207 210 231 234 228 219 223 226 246 247 253 255 257 248 244 239 232 231 233 225 222 218 220 225 225 224 227 231 237 245 243 236 227 219 217 208 207 206 216 214
nan nan nan nan nan nan nan nan nan nan nan nan nan nan nan nan nan nan nan nan nan nan nan nan 237 nan nan nan nan nan nan nan nan nan nan nan 209 208 208 210 209 207 208 208 208 209 212 212 214 218 233 235 222 224 235 248 248 253 258 256 252 249 246 238 235 234 229 222 221 225 226 225 227 233 240 243 242 245 238 234 224 219 213 211 217 226
nan nan nan nan nan nan nan nan nan nan nan nan nan nan nan nan nan nan nan nan nan nan nan nan nan nan nan nan nan nan nan nan nan nan nan 214 211 208 210 211 209 208 208 209 210 212 214 214 214 215 214 216 234 235 237 247 245 246 248 254 253 254 254 247 238 241 240 232 228 229 230 229 227 234 239 240 236 239 243 239 238 231 222 219 215 226
nan nan nan nan nan nan nan nan nan nan nan nan nan nan nan nan nan nan nan nan nan nan nan nan nan nan nan nan nan nan nan nan nan nan nan 216 212 211 211 212 211 210 209 210 211 212 213 215 216 213 210 214 220 238 239 236 241 240 247 251 250 246 247 242 240 243 246 243 237 235 232 233 232 232 236 236 232 236 239 240 239 239 232 225 219 222
nan nan nan nan nan nan nan nan nan nan nan nan nan nan nan nan nan nan nan nan nan nan 218 nan 232 nan nan nan nan nan nan nan nan nan nan 218 216 214 212 211 211 212 212 212 213 212 212 214 217 215 211 211 216 222 224 236 235 235 240 246 247 246 238 234 238 239 245 243 241 238 239 236 234 233 235 233 232 232 232 234 236 238 239 230 224 224
nan nan nan nan nan nan nan nan nan nan nan nan nan nan nan nan nan nan nan nan nan nan nan nan nan nan nan nan nan nan nan nan nan nan nan nan nan 217 215 213 212 213 213 215 215 213 212 214 214 216 214 212 214 215 222 226 231 232 235 237 245 248 252 238 229 239 243 246 242 239 238 239 237 234 233 233 231 231 230 227 230 234 236 237 230 229
nan nan nan nan nan nan nan nan nan nan nan nan nan nan nan nan nan nan nan nan nan nan nan nan nan nan nan nan nan nan nan nan nan nan nan nan nan nan 215 215 215 215 214 215 215 213 212 212 213 215 216 216 215 215 217 224 229 224 224 231 241 242 251 254 247 240 246 247 244 240 240 237 238 235 233 232 234 233 233 232 230 232 233 236 237 233
nan nan nan nan nan nan nan nan nan nan nan nan nan nan nan nan nan nan nan nan nan nan nan nan nan nan nan nan nan nan nan nan nan nan nan nan nan nan nan 217 217 217 218 217 215 214 212 212 212 212 216 218 218 217 216 219 224 226 230 229 222 231 240 247 250 249 250 247 244 245 243 239 236 235 236 235 236 237 236 235 235 235 236 237 236 235
nan nan nan nan nan nan nan nan nan nan nan nan nan nan nan nan nan nan nan nan nan nan nan nan nan nan nan nan nan nan nan nan nan nan nan nan nan nan nan nan nan 220 220 218 216 216 214 212 212 212 213 216 219 219 219 218 218 221 229 237 235 223 225 235 242 247 250 255 255 249 244 241 238 237 238 239 238 239 240 240 239 238 240 241 241 239
nan nan nan nan nan nan nan nan nan nan nan nan nan nan nan nan nan nan nan nan nan nan nan nan nan nan nan nan nan nan nan nan nan nan nan nan nan nan nan nan nan nan 221 219 218 217 216 215 214 214 213 215 217 219 222 221 218 219 223 231 237 235 226 224 233 239 243 248 253 254 256 253 248 243 241 241 240 240 240 241 240 240 240 241 242 242
nan nan nan nan nan nan nan nan nan nan nan nan nan nan nan nan nan nan nan nan nan nan nan nan nan nan nan nan nan nan nan nan nan nan nan nan nan nan nan nan nan nan 220 219 219 218 218 218 217 217 217 216 216 218 220 221 221 221 222 221 227 232 234 232 233 237 236 239 244 249 256 259 258 253 247 244 242 241 241 241 241 240 242 242 244 244
nan nan nan nan nan nan nan nan nan nan nan nan nan nan nan nan nan nan nan nan nan nan nan nan nan nan nan nan nan nan nan nan nan nan nan nan nan nan nan nan nan nan nan 220 219 219 219 220 220 220 220 221 219 218 218 221 222 222 222 221 223 225 232 236 233 227 235 239 239 244 249 254 259 261 257 251 249 246 242 241 240 240 240 242 242 242
nan nan nan nan nan nan nan nan nan nan nan nan nan nan nan nan nan nan nan nan nan nan nan nan nan nan nan nan nan nan nan nan nan nan nan nan nan nan nan nan nan nan nan nan nan nan 219 220 221 221 221 222 222 220 219 222 223 223 223 224 224 227 230 232 233 231 229 235 241 240 245 248 252 258 261 259 255 252 251 248 247 244 241 240 241 242
nan nan nan nan nan nan nan nan nan nan nan nan nan nan nan nan nan nan nan nan nan nan nan nan nan nan nan nan nan nan nan nan nan nan nan nan nan nan nan nan nan nan nan nan nan nan nan nan 219 221 220 220 222 222 221 221 222 223 225 226 227 228 230 235 238 239 238 239 238 239 243 247 247 247 252 257 258 257 257 257 254 250 248 246 247 248
nan nan nan nan nan nan nan nan nan nan nan nan nan nan nan nan nan nan nan nan nan nan nan nan nan nan nan nan nan nan nan nan nan nan nan nan nan nan nan nan nan nan nan nan nan nan nan nan nan nan 220 222 221 223 224 223 222 223 224 226 230 231 231 234 236 237 237 237 238 237 239 242 245 246 249 253 255 256 259 259 257 254 252 249 247 246
nan nan nan nan nan nan nan nan nan nan nan nan nan nan nan nan nan nan nan nan nan nan nan nan nan nan nan nan nan nan nan nan nan nan nan nan nan nan nan nan nan nan nan nan nan nan nan nan nan nan nan nan nan 222 224 223 223 223 225 227 230 232 235 235 235 234 239 240 233 231 232 236 241 246 249 250 254 256 257 259 260 258 255 254 252 251
nan nan nan nan nan nan nan nan nan nan nan nan nan nan nan nan nan nan nan nan nan nan nan nan nan nan nan nan nan nan nan nan nan nan nan nan nan nan nan nan nan nan nan nan nan nan nan nan nan nan nan nan nan nan 222 221 222 222 224 226 229 231 235 236 236 238 239 242 241 238 235 238 241 242 246 248 250 253 254 256 258 260 260 260 259 257
nan nan nan nan nan nan nan nan nan nan nan nan nan nan nan nan nan nan nan nan nan nan nan nan nan nan nan nan nan nan nan nan nan nan nan nan nan nan nan nan nan nan nan nan nan nan nan nan nan nan nan nan nan nan nan nan 218 220 221 224 226 229 231 234 236 237 239 241 241 240 240 236 235 237 239 242 245 246 248 253 257 259 260 260 260 259
nan nan nan nan nan nan nan nan nan nan nan nan nan nan nan nan nan nan nan nan nan nan nan nan nan nan nan nan nan nan nan nan nan nan nan nan nan nan nan nan nan nan nan nan nan nan nan nan nan nan nan nan nan nan nan nan nan 219 220 222 226 228 229 231 233 236 239 240 242 244 244 245 240 234 233 236 239 241 243 245 248 254 259 261 258 255
nan nan nan nan nan nan nan nan nan nan nan nan nan nan nan nan nan nan nan nan nan nan nan nan nan nan nan nan nan nan nan nan nan nan nan nan nan nan nan nan nan nan nan nan nan nan nan nan nan nan nan nan nan nan nan nan nan nan nan 222 224 227 229 229 231 234 237 239 241 244 246 247 248 242 234 232 234 236 238 242 244 247 252 257 257 255
nan nan nan nan nan nan nan nan nan nan nan nan nan nan nan nan nan nan nan nan nan nan nan nan nan nan nan nan nan nan nan nan nan nan nan nan nan nan nan nan nan nan nan nan nan nan nan nan nan nan nan nan nan nan nan nan nan nan nan nan nan 223 nan 229 231 233 234 237 239 240 243 245 247 250 247 237 230 231 234 237 241 242 245 248 253 255
nan nan nan nan nan nan nan nan nan nan nan nan nan nan nan nan nan nan nan nan nan nan nan nan nan nan nan nan nan nan nan nan nan nan nan nan nan nan nan nan nan nan nan nan nan nan nan nan nan nan nan nan nan nan nan nan nan nan nan nan nan nan nan nan 230 231 233 236 239 240 238 240 244 246 246 246 245 239 237 238 238 242 248 249 248 250
nan nan nan nan nan nan nan nan nan nan nan nan nan nan nan nan nan nan nan nan nan nan nan nan nan nan nan nan nan nan nan nan nan nan nan nan nan nan nan nan nan nan nan nan nan nan nan nan nan nan nan nan nan nan nan nan nan nan nan nan nan nan nan nan nan 229 231 235 238 239 240 240 240 244 249 247 243 243 245 245 242 243 247 250 251 249
nan nan 238 nan nan nan nan nan nan nan nan nan nan nan nan nan nan nan nan nan nan nan nan nan nan nan nan nan nan nan nan nan nan nan nan nan nan nan nan nan nan nan nan nan nan nan nan nan nan nan nan nan nan nan nan nan nan nan nan nan nan nan nan nan nan nan nan 231 235 238 240 241 242 244 248 253 253 247 245 248 247 243 244 249 253 253
nan nan nan nan nan nan nan nan nan nan nan nan nan nan nan nan nan nan nan nan nan nan nan nan nan nan nan nan nan nan nan nan nan nan nan nan nan nan nan nan nan nan nan nan nan nan nan nan nan nan nan nan nan nan nan nan nan nan nan nan nan nan nan nan nan nan nan nan nan 235 238 239 240 244 247 251 257 257 253 248 248 249 248 248 251 254
nan nan nan nan nan nan nan nan nan nan nan nan nan nan nan nan nan nan nan nan nan nan nan nan nan nan nan nan nan nan nan nan nan nan nan nan nan nan nan nan nan nan nan nan nan nan nan nan nan nan nan nan nan nan nan nan nan nan nan nan nan nan nan nan nan nan nan nan nan nan nan nan 241 240 241 245 253 258 257 254 251 249 250 253 252 253
nan nan nan nan nan nan nan nan nan nan nan nan nan nan nan nan nan nan nan nan nan nan nan nan nan nan nan nan nan nan nan nan nan nan nan nan nan nan nan nan nan nan nan nan nan nan nan nan nan nan nan nan nan nan nan nan nan nan nan nan nan nan nan nan nan nan nan nan nan nan nan nan nan 238 240 243 246 250 254 257 255 252 252 256 258 257
nan nan nan nan nan nan nan nan nan nan nan nan nan nan nan nan nan nan nan nan nan nan nan nan nan nan nan nan nan nan nan nan nan nan nan nan nan nan nan nan nan nan nan nan nan nan nan nan nan nan nan nan nan nan nan nan nan nan nan nan nan nan nan nan nan nan nan nan nan nan nan nan nan nan 241 241 243 246 249 252 252 251 251 254 256 258
nan nan nan nan nan nan nan nan nan nan nan nan nan nan nan nan nan nan nan nan nan nan nan nan nan nan nan nan nan nan nan nan nan nan nan nan nan nan nan nan nan nan nan nan nan nan nan nan nan nan nan nan nan nan nan nan nan nan nan nan nan nan nan nan nan nan nan nan nan nan nan nan nan nan nan nan 242 243 245 251 nan 252 251 249 251 252
nan nan nan nan nan nan nan nan nan nan nan nan nan nan nan nan nan nan nan nan nan nan nan nan nan nan nan nan nan nan nan nan nan nan nan nan nan nan nan nan nan nan nan nan nan nan nan nan nan nan nan nan nan nan nan nan nan nan nan nan nan nan nan nan nan nan nan nan nan nan nan nan nan nan nan 241 241 241 242 242 247 nan nan 258 254 253